Dean International
Flight School

Career Spotlight

Mika

Mika

Congratulations to Mika from Khazakstan. She recently sent us this photo of her flying an Airbus airliner.

More...
Mika's Success Story
close

Congratulations to Mika from Khazakstan. She recently sent us this photo of her flying an Airbus airliner.

Mario

Mario

My dreams could not have been realized if I wouldn't have been part of the Dean International family.

More...
Mario's Success Story
close

"My dreams could not have been realized if I wouldn't have been part of the Dean International family. Thank you Robert, thanks to all my co-workers, and thanks to all of my students!"

Fernando

Fernando

I am now working as a First Officer at TACA and am enjoying every moment of it.

More...
Fernando's Success Story
close

"Will never forget my time of flight training at Dean International. I am now working as a First Officer at TACA and am enjoying every moment of it."

Alvaro

Alvaro

Because of the flight time I was able to built while instructing, I got the experience needed to apply to an airline in Colombia.

More...
Alvaro's Success Story
close

Dean alumnus Alvaro Londoño currently flies with Tampa Cargo. He says of his experience at Dean: "I want to take this opportunity to thank you for giving me the chance to build my experience and expand my knowledge in Dean International. Because of the flight time I was able to built flight instructing, I got the experience needed to apply to an airline in Colombia."

Ralph

Ralph

Every Aruban student of Dean International has made it into Tiara Air Aruba, that is very nice.

More...
Ralph's Success Story
close

"Next to me is my Co-Pilot, Elison. This picture was taken on our first flight together, which was almost exactly 5 years after I finished at Dean International. [...] Every Aruban student of Dean International has made it into Tiara Air Aruba. [...] The future looks bright here in Aruba."

Rohaan

Rohaan

The [..] staff will all work diligently to help you finish your certificates as safely and efficiently as possible.

More...
Rohaan's Success Story
close

After receiving very hard times from other flight schools [...], I came to Dean International where Robert Dean personally sat down with me and gave me a financial and chronological look into how much remained to finish my private pilot certificate. Through his hard efforts as an instructor and mentor, I was able to finish my private pilot certificate within one week.

Welcome to Dean International

In over two decades, Dean International has educated over 7,000 pilots from all over the world, including over 1,000 students from India alone. By offering a great training experience, a friendly service staff, an ample variety of aircraft, and by improving constantly, we have become one of the largest, most prestigious FAA 141-approved flight schools in North America. Located in Miami, Florida, USA, our flight school offers an ideal location for year-round, "learn to fly" weather, flight training. Dean International is not only well-equipped to provide services to professional trainees but also caters to General Aviation renters. Visit or contact our headquarters at Kendall-Tamiami Executive Airport located in Miami, FL today to learn more about us, or simply read more about our programs if you are an international student interested in joining our school.

Local Airport Information
TAF FOR KTMB (Issued: Sat, November 22nd 2014 12:36 PM UTC)
TAF KTMB 221134Z 2212/2312 09012G16KT P6SM VCSH SCT030 BKN050
      FM221300 10015G25KT P6SM VCSH BKN025
     
METAR FOR KTMB (Issued: Sat, November 22nd 2014 12:53 PM UTC):
KTMB 221253Z 09014KT 10SM FEW027 OVC035 24/21 A3016 RMK AO2 SLP211 T02440206

This weather information is provided by the National Weather Service.
It is automatically refreshed every three minutes.
TAF FOR KHST (Issued: Sat, November 22nd 2014 8:13 AM UTC)
TAF KHST 2208/2314 07015KT 9999 VCSH BKN025 QNH3010INS
      BECMG 2215/2216 08015G25KT 8000 -SHRA BKN020 OVC050 QNH3004INS
      BECMG 2221/2222 11012KT 9999 NSW OVC020 QNH2999INS TX26/2219Z TN21/2211Z
     
METAR FOR KHST (Issued: Sat, November 22nd 2014 12:58 PM UTC):
KHST 221258Z AUTO 07013KT 10SM FEW026 SCT031 24/21 A3015 RMK AO2 SLP213 T02440208

This weather information is provided by the National Weather Service.
It is automatically refreshed every three minutes.
TAF FOR KOPF (Issued: Sat, November 22nd 2014 12:36 PM UTC)
TAF KOPF 221134Z 2212/2312 08014G22KT P6SM VCSH SCT024 BKN040
      FM221300 09015G25KT P6SM VCSH BKN025
     
METAR FOR KOPF (Issued: Sat, November 22nd 2014 12:53 PM UTC):
KOPF 221253Z 09011G20KT 10SM OVC035 25/20 A3016 RMK AO2 SLP214 T02500200

This weather information is provided by the National Weather Service.
It is automatically refreshed every three minutes.
TAF FOR KMIA (Issued: Sat, November 22nd 2014 12:39 PM UTC)
TAF KMIA 221134Z 2212/2312 07013G21KT P6SM VCSH SCT027 BKN050
      FM221300 09015G25KT P6SM VCSH BKN025
     
METAR FOR KMIA (Issued: Sat, November 22nd 2014 12:53 PM UTC):
KMIA 221253Z 08015KT 10SM FEW027 BKN035 OVC075 25/20 A3016 RMK AO2 SLP211 T02500200

This weather information is provided by the National Weather Service.
It is automatically refreshed every three minutes.
Design by Ariel Llizo
© Dean International Inc. 2012